Powrót do katalogu

STARLINK-5439

AktywnyŁącznośćVLEO
NORAD 54783·PAYLOAD·🇺🇸 United States

Wystrzelony Dec 17, 2022 z Cape Canaveral Space Force Station

Loading…

Następne Przeloty (najbliższe 24 godziny)

TLE

ŚwieżeSource: CelesTrak SupGP

Epoka: Sep 14, 2026, 22:01 UTC

1 54783C 22175AB  26257.91784722  .00039512  00000+0  12707-2 0  2571
2 54783  53.1577 245.7983 0001346  94.1072 319.5742 15.31680672    13

Śledź STARLINK-5439 w czasie rzeczywistym z AllMySat

Download on the App Store